Location: Unspecified
(44.0704°N, 88.6889°W)
Time: 15:02:10
(UTC+02:00)

Transit 2A - Pass Details

Date: 21 June 2019
Orbit: 596 x 962 km, 66.7° (Epoch: 16 August)

Event Time Altitude Azimuth Distance (km) Brightness Sun altitude
Rises 16:43:16 0° 330° (NNW) 3,469 9.1 45.6°
Reaches altitude 10° 16:45:55 10° 334° (NNW) 2,473 8.5 46.1°
Maximum altitude 16:51:32 60° 54° (NE) 894 7.6 47.1°
Drops below altitude 10° 16:56:32 10° 134° (SE) 2,212 9.2 48.0°
Sets 16:58:48 0° 138° (SE) 3,074 9.6 48.4°
